Regional Weather Roundup
Issued by NWS

Home | Current Version | Previous Version | Graphics & Text | Print | Product List | Glossary On
Versions: 1 2 3 4 5 6 7 8 9 10 11 12 13 14 15 16 17 18 19 20 21 22 23 24 25 26 27 28 29 30 31 32 33 34 35 36 37 38 39 40 41 42 43 44 45 46 47 48 49 50
000
ASUS43 KLMK 301602
RWRKY
KENTUCKY REGIONAL WEATHER ROUNDUP
NATIONAL WEATHER SERVICE LOUISVILLE KY
1200 PM EDT SAT APR 30 2016

NOTE "FAIR" INDICATES FEW OR NO CLOUDS BELOW 12,000 FEET
WITH NO SIGNIFICANT WEATHER AND/OR OBSTRUCTIONS TO VISIBILITY.

KYZ001>023-026-027-061>063-070>075-301700-
WESTERN AND SOUTH CENTRAL KENTUCKY

CITY           SKY/WX    TMP DP  RH WIND       PRES   REMARKS
PADUCAH        CLOUDY    67  62  84 SE13      29.83R
HENDERSON      CLOUDY    61  57  88 SE9       29.85F
OWENSBORO      LGT RAIN  62  62 100 SE10      29.90F FOG
HOPKINSVILLE   NOT AVBL
BOWLING GREEN  CLOUDY    65  62  90 E8        29.94F
GLASGOW        NOT AVBL
$$

KYZ024-025-028>034-038-045-046-053-301700-
NORTH CENTRAL KENTUCKY

CITY           SKY/WX    TMP DP  RH WIND       PRES   REMARKS
LOUISVILLE/SDF RAIN      60  57  89 E5        29.97R FOG
LOUISVILLE/LOU RAIN      59  56  89 VRB3      29.99R FOG
FORT KNOX      LGT RAIN  59  58  97 E9        29.94F
$$

KYZ035>037-039>044-047>052-055>060-089>105-301700-
NORTHEAST KENTUCKY

CITY           SKY/WX    TMP DP  RH WIND       PRES   REMARKS
LEXINGTON      RAIN      59  57  93 E9        30.02F FOG
COVINGTON      LGT RAIN  55  52  89 E9        30.04F FOG
FRANKFORT      LGT RAIN  59  56  89 E9        29.98F FOG
$$

KYZ054-064>069-076>088-106>120-301700-
SOUTHEAST KENTUCKY

CITY           SKY/WX    TMP DP  RH WIND       PRES   REMARKS
JACKSON        LGT RAIN  61  55  81 NW6       30.04R
LONDON         LGT RAIN  62  56  80 NW6       30.04R
SOMERSET       NOT AVBL
MIDDLESBORO    RAIN      66  59  78 SW5       30.03R
MONTICELLO     LGT RAIN  62  59  90 VRB3      30.03F
$$




USA.gov is the U.S. government's official web portal to all federal, state and local government web resources and services.